This demonstration page uses our WeatherBlox Daily Observations layout. Learn more.

Left ArrowRight Arrow

Hourly Observations for March 24, 2015

Temp ( °F °C ) Dew Point ( °F °C ) Humidity (%) Winds ( mph kmh ) Pressure ( in mb ) Visibility ( mi km ) Precip ( " mm )
12:16 am 00:16 Mostly Cloudy 30 -1 21 -6 69 69 ENE 9 15 30.24 1024 10 16 N/A
12:35 am 00:35 Cloudy 28 -2 21 -6 74 74 NE 12 19 30.24 1024 10 16 N/A
12:56 am 00:56 Mostly Cloudy 30 -1 21 -6 69 69 NE 9 15 30.24 1024 10 16 N/A
1:16 am 01:16 Cloudy 30 -1 21 -6 69 69 ENE 8 13 30.24 1024 10 16 N/A
1:35 am 01:35 Cloudy 30 -1 21 -6 69 69 ENE 10 17 30.24 1024 10 16 N/A
1:56 am 01:56 Cloudy 30 -1 21 -6 69 69 NE 12 19 30.24 1024 7 11 N/A
2:16 am 02:16 Cloudy 30 -1 21 -6 69 69 NE 9 15 30.24 1024 7 11 N/A
2:35 am 02:35 Cloudy 30 -1 21 -6 69 69 NE 12 19 30.24 1024 5 8 N/A
2:56 am 02:56 Cloudy 30 -1 21 -6 69 69 NE 13 20 30.24 1024 5 8 N/A
3:16 am 03:16 Cloudy 28 -2 21 -6 74 74 NE 9 15 30.24 1024 7 11 N/A
3:35 am 03:35 Cloudy 28 -2 21 -6 74 74 NE 10 17 30.24 1024 7 11 N/A
3:56 am 03:56 Cloudy 28 -2 21 -6 74 74 ENE 10 17 30.24 1024 7 11 N/A
4:15 am 04:15 Cloudy 28 -2 21 -6 74 74 NE 10 17 30.24 1024 7 11 N/A
4:36 am 04:36 Cloudy 28 -2 19 -7 69 69 NE 12 19 30.24 1024 7 11 N/A
4:56 am 04:56 Cloudy 28 -2 19 -7 69 69 NE 10 17 30.24 1024 10 16 N/A
5:15 am 05:15 Cloudy 27 -3 19 -7 74 74 NE 12 19 30.24 1024 10 16 N/A
5:36 am 05:36 Cloudy 27 -3 19 -7 74 74 NE 13 20 30.24 1024 10 16 N/A
5:56 am 05:56 Cloudy 27 -3 18 -8 69 69 NE 12 19 30.24 1024 10 16 N/A
6:15 am 06:15 Mostly Cloudy 27 -3 18 -8 69 69 NE 14 22 30.24 1024 10 16 N/A
6:36 am 06:36 Clear 25 -4 18 -8 74 74 NE 9 15 30.27 1025 10 16 N/A
6:56 am 06:56 Clear 25 -4 18 -8 74 74 NE 12 19 30.27 1025 10 16 N/A
7:15 am 07:15 Clear 25 -4 18 -8 74 74 NE 10 17 30.27 1025 10 16 N/A
7:36 am 07:36 Clear 27 -3 18 -8 69 69 NE 8 13 30.24 1024 10 16 N/A
7:56 am 07:56 Sunny 27 -3 16 -9 64 64 NE 12 19 30.24 1024 10 16 N/A
8:15 am 08:15 Sunny 27 -3 18 -8 69 69 ENE 8 13 30.24 1024 10 16 N/A
8:36 am 08:36 Partly Cloudy 27 -3 16 -9 64 64 NE 9 15 30.27 1025 10 16 N/A
8:56 am 08:56 Partly Cloudy 28 -2 16 -9 59 59 NE 9 15 30.27 1025 10 16 N/A
9:15 am 09:15 Partly Cloudy 28 -2 16 -9 59 59 ENE 9 15 30.27 1025 10 16 N/A
9:36 am 09:36 Sunny 30 -1 16 -9 55 55 ENE 14 22 30.27 1025 10 16 N/A
9:55 am 09:55 Sunny 30 -1 16 -9 55 55 ENE 7 11 30.30 1026 10 16 N/A
10:16 am 10:16 Sunny 30 -1 16 -9 55 55 ENE 7 11 30.30 1026 10 16 N/A
10:36 am 10:36 Sunny 32 undefined 16 -9 51 51 ENE 8 13 30.30 1026 10 16 N/A
10:55 am 10:55 Sunny 32 undefined 18 -8 55 55 E 12 19 30.27 1025 10 16 N/A
11:16 am 11:16 Sunny 32 undefined 18 -8 55 55 E 9 15 30.27 1025 10 16 N/A
11:36 am 11:36 Sunny 34 1 19 -7 56 56 E 10 17 30.27 1025 10 16 N/A
11:55 am 11:55 Sunny 36 2 19 -7 52 52 E 12 19 30.27 1025 10 16 N/A
12:16 pm 12:16 Sunny 36 2 19 -7 52 52 E 13 20 30.27 1025 10 16 N/A
12:36 pm 12:36 Sunny 37 3 19 -7 48 48 E 9 15 30.27 1025 10 16 N/A
12:55 pm 12:55 Sunny 37 3 19 -7 48 48 E 8 13 30.27 1025 10 16 N/A
1:16 pm 13:16 Sunny 37 3 19 -7 48 48 E 9 15 30.27 1025 10 16 N/A
1:36 pm 13:36 Sunny 39 4 21 -6 48 48 ESE 9 15 30.27 1025 10 16 N/A
1:55 pm 13:55 Sunny 41 5 21 -6 45 45 ENE 9 15 30.21 1023 10 16 N/A
2:16 pm 14:16 Sunny 41 5 21 -6 45 45 E 13 20 30.21 1023 10 16 N/A
2:36 pm 14:36 Sunny 41 5 21 -6 45 45 E 13 20 30.21 1023 10 16 N/A
2:55 pm 14:55 Sunny 43 6 21 -6 42 42 E 13 20 30.21 1023 10 16 N/A
3:16 pm 15:16 Sunny 43 6 23 -5 46 46 E 9 15 30.21 1023 10 16 N/A
3:36 pm 15:36 Sunny 45 7 23 -5 42 42 ESE 10 17 30.21 1023 10 16 N/A
3:55 pm 15:55 Sunny 45 7 23 -5 42 42 ESE 9 15 30.21 1023 10 16 N/A
4:16 pm 16:16 Sunny 45 7 25 -4 46 46 SE 9 15 30.21 1023 10 16 N/A
4:35 pm 16:35 Sunny 45 7 25 -4 46 46 ESE 13 20 30.21 1023 10 16 N/A
4:56 pm 16:56 Sunny 43 6 25 -4 49 49 ESE 10 17 30.18 1022 10 16 N/A
5:16 pm 17:16 Sunny 45 7 25 -4 46 46 ESE 13 20 30.18 1022 10 16 N/A
5:35 pm 17:35 Sunny 43 6 25 -4 49 49 ESE 9 15 30.18 1022 10 16 N/A
5:56 pm 17:56 Partly Cloudy 43 6 25 -4 49 49 ESE 8 13 30.18 1022 10 16 N/A
6:16 pm 18:16 Mostly Cloudy 41 5 27 -3 57 57 ESE 9 15 30.18 1022 7 11 N/A
6:35 pm 18:35 Cloudy 41 5 30 -1 66 66 E 10 17 30.15 1021 7 11 N/A
6:56 pm 18:56 Cloudy 41 5 30 -1 66 66 ESE 8 13 30.15 1021 7 11 N/A
7:16 pm 19:16 Mostly Cloudy 41 5 30 -1 66 66 ESE 10 17 30.15 1021 10 16 N/A
7:36 pm 19:36 Mostly Cloudy 41 5 30 -1 66 66 ESE 9 15 30.15 1021 10 16 N/A
7:56 pm 19:56 Mostly Cloudy 41 5 30 -1 66 66 ESE 9 15 30.15 1021 10 16 N/A
8:15 pm 20:15 Mostly Cloudy 41 5 30 -1 66 66 ESE 9 15 30.15 1021 10 16 N/A
8:36 pm 20:36 Mostly Cloudy 41 5 30 -1 66 66 ESE 8 13 30.15 1021 10 16 N/A
8:56 pm 20:56 Mostly Cloudy 41 5 30 -1 66 66 ESE 8 13 30.15 1021 10 16 N/A
9:15 pm 21:15 Mostly Cloudy 41 5 30 -1 66 66 ESE 12 19 30.12 1020 10 16 N/A
9:36 pm 21:36 Partly Cloudy 41 5 30 -1 66 66 ESE 13 20 30.09 1019 10 16 N/A
9:56 pm 21:56 Clear 41 5 30 -1 66 66 ESE 12 19 30.09 1019 10 16 N/A
10:15 pm 22:15 Clear 41 5 30 -1 66 66 ESE 10 17 30.09 1019 10 16 N/A
10:36 pm 22:36 Partly Cloudy 41 5 30 -1 66 66 ESE 9 15 30.09 1019 10 16 N/A
10:56 pm 22:56 Partly Cloudy 41 5 30 -1 66 66 ESE 12 19 30.06 1018 10 16 N/A
11:15 pm 23:15 Clear 41 5 30 -1 66 66 SE 9 15 30.06 1018 10 16 N/A
11:36 pm 23:36 Partly Cloudy 41 5 30 -1 66 66 SE 9 15 30.06 1018 10 16 N/A
11:56 pm 23:56 Clear 41 5 30 -1 66 66 SE 10 17 30.06 1018 10 16 N/A

Powered by AerisWeather